RH
37 32 25 20 21 32 38 41 50 55 68 71 68 73 70 73 76 76 76 69 68 66 64 65 67 64 55 54 58 61 66 64 57 60 59 54 51 48 43 42 45 52 63 70 71 68 64 64 64 65 61 59 62 63 60 49 37 24 18 19 20 33
38 34 25 19 19 25 32 38 51 61 69 70 67 70 67 69 76 79 81 79 74 66 59 59 62 61 52 50 57 62 67 66 62 66 68 65 65 63 57 50 50 53 61 68 68 66 66 69 67 65 64 66 72 71 64 55 40 23 16 17 20 31
39 36 26 19 19 24 30 34 49 63 70 68 62 65 68 69 75 79 80 83 81 72 63 54 51 52 48 47 58 65 67 68 64 69 75 78 80 81 78 69 63 61 64 69 70 73 76 77 73 70 72 73 75 72 65 57 41 23 16 18 19 25
41 37 28 19 19 22 28 33 44 62 72 68 56 58 67 70 72 76 79 82 83 80 75 64 49 45 44 47 60 66 67 68 66 71 77 82 87 89 89 84 78 74 72 74 75 79 80 80 78 76 77 76 75 72 66 56 39 23 18 20 20 21
42 41 34 22 18 20 23 28 37 55 69 65 57 54 60 65 67 73 77 77 78 79 79 72 55 43 44 48 55 60 63 66 65 72 78 82 88 90 91 90 87 85 83 82 81 81 80 79 77 74 75 75 73 69 64 55 39 24 20 21 19 19
41 43 41 30 19 17 21 23 27 43 59 62 57 50 50 60 66 71 75 74 75 75 74 71 59 48 48 50 51 54 60 64 66 74 78 83 89 89 90 89 89 91 90 89 86 84 83 81 76 72 71 70 69 64 62 57 46 34 26 23 20 19
42 42 44 37 23 18 19 20 21 28 41 49 47 40 40 54 65 70 72 70 70 71 71 67 62 56 53 52 52 53 58 62 68 76 78 83 89 88 89 90 91 92 92 92 90 87 85 81 76 72 69 69 68 63 60 59 54 47 39 31 25 23
44 43 43 37 26 20 18 19 21 22 27 33 33 34 36 45 59 68 68 64 63 65 69 68 63 60 57 55 53 53 58 62 71 80 79 83 87 88 89 91 93 93 92 93 91 90 87 83 79 75 72 71 68 63 60 60 58 54 50 44 35 29
44 44 43 38 27 22 19 18 21 21 23 24 27 34 37 39 47 57 60 57 58 61 68 71 65 60 58 56 53 53 57 62 74 82 82 82 84 85 86 90 93 93 92 93 91 90 89 87 83 79 76 71 65 62 61 61 60 59 57 54 49 41
45 46 43 37 30 27 23 18 18 20 20 19 23 34 39 37 39 45 50 53 60 65 69 72 65 58 57 55 52 52 57 63 70 79 83 83 83 83 83 87 91 92 92 91 90 88 88 87 84 82 78 73 67 64 64 63 62 60 60 60 58 54
50 53 45 35 32 33 29 20 17 18 18 17 21 33 39 39 41 47 53 62 70 71 72 72 64 55 54 54 51 52 59 61 64 76 85 83 81 82 83 86 90 91 91 89 88 88 88 86 84 82 78 74 71 67 67 68 66 62 60 61 61 60
58 59 51 43 42 40 36 28 20 19 18 15 19 32 40 44 55 65 70 76 80 75 72 71 64 56 53 52 50 54 61 62 67 81 86 83 82 84 87 89 89 89 89 87 87 89 89 87 83 81 78 75 72 71 70 70 71 67 62 61 61 61
67 66 58 56 60 57 54 43 29 26 24 16 18 31 40 53 70 79 81 82 82 76 71 71 67 59 54 53 52 55 64 66 73 85 85 83 86 86 88 89 88 88 88 85 86 88 90 88 84 80 78 75 71 71 73 73 74 72 68 66 64 62
75 73 62 65 74 73 75 72 58 49 39 20 19 31 39 59 76 80 84 84 82 76 70 73 72 64 55 54 56 58 67 72 78 86 85 83 86 87 89 89 87 86 86 84 84 86 89 89 85 80 77 75 70 66 70 73 76 77 75 75 71 65
83 81 70 70 75 72 73 77 73 68 61 32 20 32 39 56 73 78 83 83 82 77 71 76 78 74 64 59 63 66 72 80 84 87 85 83 86 89 91 90 88 88 85 83 85 85 89 89 85 82 78 77 70 61 65 69 73 79 80 80 79 72
91 92 85 76 74 73 65 65 66 68 76 53 23 27 38 52 66 75 84 80 77 79 78 79 81 83 79 73 75 77 81 86 89 89 84 83 88 89 92 91 89 89 85 83 85 84 86 88 85 84 82 82 77 65 64 66 68 73 77 81 84 82
94 98 97 87 79 78 69 71 78 70 75 71 41 27 37 52 61 70 83 78 72 80 84 81 80 82 84 83 82 83 86 90 92 91 85 84 90 89 89 89 88 88 85 84 85 82 81 83 81 82 83 83 81 74 68 67 68 69 71 74 77 84
87 88 87 84 79 80 77 80 93 82 68 76 70 53 54 66 70 74 81 77 75 81 83 82 81 82 82 83 84 85 89 91 91 92 89 86 88 89 87 87 87 86 86 87 86 83 79 78 78 78 81 80 78 77 73 70 71 70 69 70 67 71
77 77 74 77 78 81 86 85 92 92 74 71 80 77 76 80 78 79 79 75 79 82 80 81 82 82 81 80 80 83 88 89 85 85 89 88 85 85 85 85 86 84 85 88 87 85 83 79 78 78 80 80 77 77 75 71 69 66 67 70 66 63
70 72 72 76 79 78 84 82 82 92 84 69 77 82 81 80 79 81 79 75 81 86 83 82 82 82 81 78 75 79 87 86 80 78 80 82 79 79 81 82 83 82 82 86 85 84 85 82 79 80 83 83 78 76 78 77 72 66 64 66 69 67
66 70 70 69 73 74 76 77 76 87 88 71 74 86 82 78 79 80 79 76 79 83 83 84 84 83 82 79 73 77 84 82 80 77 68 67 68 70 79 81 78 77 76 79 82 80 78 79 81 82 83 81 78 79 83 84 81 77 73 70 71 71
73 74 69 64 68 73 73 73 70 76 87 79 73 83 85 79 78 79 78 77 77 77 77 79 82 84 82 78 71 70 76 77 76 67 55 55 58 62 76 82 77 76 72 66 71 76 73 73 80 82 78 75 75 81 87 90 88 85 82 81 79 77
74 70 65 63 66 72 74 72 66 64 77 86 76 75 84 84 77 77 77 76 79 79 75 73 75 80 81 75 64 55 56 63 62 52 42 42 47 55 71 78 72 69 69 61 58 66 72 73 78 81 77 72 73 80 85 84 80 76 77 82 85 85
74 68 64 61 59 67 76 77 72 65 69 82 81 72 81 90 81 74 75 74 78 80 76 71 63 63 72 71 57 40 35 41 47 50 43 33 33 42 52 58 53 45 47 49 44 46 58 68 74 77 77 74 76 83 83 75 69 70 74 78 80 83
83 74 68 61 58 67 80 84 80 77 75 79 85 78 75 90 89 75 72 73 75 77 77 72 57 44 48 54 48 36 30 31 37 46 43 30 23 24 26 31 33 26 23 29 32 36 45 53 58 66 73 74 76 81 80 73 69 70 72 73 74 77
85 73 67 62 63 69 77 83 82 81 79 75 84 82 69 82 92 79 72 73 74 74 77 78 66 47 37 35 35 33 32 30 30 33 31 27 23 20 18 18 20 19 18 22 28 35 43 47 47 52 62 70 74 75 75 74 74 74 72 70 71 73
81 70 64 61 65 73 77 81 81 81 81 74 78 80 67 75 88 81 75 76 75 74 76 78 74 62 47 33 26 30 34 31 26 23 19 19 19 17 16 14 16 21 24 27 31 37 44 50 51 48 50 59 67 70 71 70 68 69 72 71 70 71
85 78 71 69 72 81 84 86 87 86 86 77 75 75 66 70 80 80 77 77 78 75 73 76 75 68 57 42 29 29 37 35 25 19 16 16 15 14 14 14 20 28 33 34 36 41 46 50 56 55 53 57 61 62 63 62 61 64 71 73 68 67
84 82 83 87 89 91 95 98 96 94 95 89 81 74 66 68 73 73 75 76 77 76 74 74 70 63 58 50 36 27 33 35 27 19 16 16 15 14 16 20 26 34 39 38 39 49 57 59 62 64 65 68 68 67 63 60 61 69 79 83 74 64
81 81 86 94 96 97 99 96 90 91 97 95 87 76 72 75 73 68 68 69 69 73 76 74 66 57 55 57 47 29 25 29 29 25 21 17 16 17 23 28 35 42 48 50 52 62 74 77 78 82 85 85 84 83 80 73 72 78 85 90 87 78
85 81 82 89 95 99 99 89 79 83 92 93 86 79 80 84 78 70 65 61 63 71 77 73 63 54 52 60 61 42 25 22 26 27 22 17 18 24 32 37 44 53 60 62 61 70 84 91 90 87 84 79 76 78 83 84 83 85 86 85 86 84
93 86 87 94 99 99 98 93 85 83 87 92 94 92 89 86 80 74 66 61 65 73 75 67 59 56 53 58 65 55 39 33 33 34 33 31 31 36 42 45 49 58 65 68 66 68 78 89 88 78 69 61 52 51 58 65 70 76 82 82 81 80
96 94 96 99 99 99 98 96 94 89 87 89 92 89 82 77 76 73 67 65 67 70 68 59 55 57 52 50 56 58 57 58 57 57 61 63 61 59 57 56 55 57 62 72 78 72 71 79 83 77 73 66 56 51 52 55 61 67 76 83 84 83
94 96 99 98 96 97 97 95 96 96 95 90 84 78 73 70 69 68 68 68 68 65 61 56 54 55 51 48 53 59 67 74 74 73 77 79 78 74 69 66 67 69 72 81 90 87 81 80 75 70 70 69 65 62 56 56 63 67 72 81 85 85
94 92 93 94 92 89 90 95 96 94 94 92 84 78 79 77 71 70 73 74 72 68 60 56 52 51 54 58 62 65 68 73 79 82 82 81 80 79 77 77 79 82 84 87 90 90 88 86 80 77 78 73 65 61 57 56 63 67 70 76 77 75
97 90 82 83 87 85 86 89 87 85 89 95 90 81 78 82 77 72 74 75 73 67 62 61 58 56 64 66 63 68 74 76 80 85 85 82 82 82 84 86 88 88 87 87 86 85 87 89 88 87 86 75 63 64 67 68 71 73 73 74 72 69
95 94 86 82 87 90 92 92 87 88 92 96 95 84 72 72 74 74 79 81 78 72 68 69 67 62 62 60 56 64 76 81 82 84 85 86 88 89 87 87 89 89 86 83 82 82 84 88 88 86 80 68 62 68 75 75 77 77 75 73 73 72
Wind_Speed
20 20 18 16 17 16 15 14 13 12 12 13 14 13 14 14 13 13 13 13 13 13 13 12 12 10 9 8 7 7 8 8 9 12 14 15 17 19 19 19 18 17 17 16 13 10 9 6 4 4 3 3 5 7 10 11 9 7 4 4 7 9
20 20 19 18 18 17 16 16 15 14 14 14 14 14 14 14 14 14 14 14 13 12 13 13 12 11 10 9 8 8 8 8 10 12 14 15 17 20 21 21 20 18 16 15 13 11 10 6 4 3 4 4 6 9 11 11 10 7 4 3 6 9
20 20 20 20 20 19 17 17 17 17 16 15 16 16 15 15 15 15 14 14 13 12 12 12 12 12 10 9 9 8 8 9 10 10 12 14 16 19 21 21 21 19 18 17 16 13 11 7 3 3 5 5 7 10 11 10 10 8 6 3 5 8
21 21 21 22 22 20 19 18 19 19 17 17 18 17 17 16 16 16 15 14 14 13 11 11 12 12 11 11 10 10 10 10 10 10 10 13 15 17 19 20 20 19 18 16 15 13 10 6 2 3 5 5 7 9 9 9 10 9 7 4 5 6
23 22 22 23 23 22 21 20 20 21 19 18 19 19 19 18 18 17 15 15 14 13 12 12 12 13 13 12 11 11 11 11 10 10 11 13 14 15 16 17 17 16 16 14 12 10 8 4 2 3 4 5 6 7 8 8 9 9 8 6 5 5
25 25 23 23 24 23 23 22 21 22 21 21 20 20 20 20 20 18 17 16 15 14 13 13 13 13 13 13 12 11 11 12 12 11 12 13 14 14 14 14 14 13 13 12 11 9 6 3 2 4 5 5 6 6 6 8 8 9 8 6 6 5
26 26 24 25 25 24 24 23 21 21 22 22 21 21 20 21 20 19 18 17 16 15 14 14 13 14 14 14 13 12 12 12 13 12 12 13 14 14 13 12 11 11 10 10 10 9 5 2 3 4 5 6 6 6 6 7 8 8 8 7 7 6
28 26 26 27 27 24 23 23 21 21 22 22 22 22 20 20 20 20 18 17 16 16 15 14 14 15 14 14 13 12 12 14 14 13 12 13 14 13 12 11 11 10 8 8 8 7 5 1 3 5 6 7 8 6 5 6 7 7 7 8 7 7
28 27 26 27 26 25 24 24 22 20 21 22 22 22 20 20 21 21 20 18 17 16 15 14 15 15 14 14 13 13 13 15 16 13 12 13 14 13 11 10 10 9 8 6 5 5 3 0 3 6 7 9 10 8 7 7 7 7 7 7 7 6
28 26 26 26 26 25 24 25 23 21 21 22 22 22 21 21 21 22 21 19 17 16 16 15 15 15 15 14 14 15 14 16 16 12 12 13 13 13 11 9 8 8 7 5 3 3 1 1 2 5 7 9 11 10 9 9 8 7 7 7 7 7
27 26 25 25 26 25 24 25 24 22 22 22 23 23 23 22 22 22 20 18 17 16 16 15 15 15 15 15 15 16 15 16 15 11 12 13 13 12 10 9 7 7 6 4 2 1 1 2 2 4 5 7 9 10 10 10 10 9 8 7 7 7
27 26 26 25 25 24 23 23 24 24 23 23 23 24 24 23 23 21 19 18 16 16 16 15 15 15 15 15 16 17 16 15 13 11 13 14 13 12 9 8 7 7 6 2 0 0 1 2 3 4 4 6 7 8 9 10 10 11 10 9 7 7
28 27 26 25 24 23 22 22 23 23 23 24 24 25 25 24 23 21 19 17 16 15 15 15 15 15 16 15 16 18 17 15 12 11 13 13 12 11 9 7 7 8 5 2 2 2 1 1 3 4 4 4 6 7 7 9 9 9 10 9 7 6
30 28 27 26 26 24 23 23 22 20 20 23 24 25 26 25 23 20 18 16 15 15 15 15 15 15 16 16 17 18 16 14 13 11 11 12 10 9 9 8 7 8 5 4 4 2 2 2 3 3 3 4 5 6 6 7 7 7 7 8 7 6
30 30 29 28 27 25 24 23 22 19 17 19 24 25 26 26 23 20 17 16 16 16 15 14 15 15 16 17 17 17 16 13 12 12 10 11 10 8 9 9 8 8 7 6 5 3 3 3 4 4 4 5 5 5 6 6 6 6 5 5 5 5
29 30 29 30 28 25 25 24 22 21 17 17 22 24 25 26 23 20 17 16 17 17 16 15 15 15 16 17 16 16 15 13 12 12 11 12 12 10 10 10 10 10 9 7 7 5 4 5 5 5 5 5 6 6 5 6 6 6 6 6 5 4
26 27 29 30 28 26 25 25 24 23 21 19 20 22 24 24 21 19 18 17 17 18 17 16 15 15 15 16 16 16 14 13 12 12 13 14 14 13 12 11 11 12 10 8 7 6 4 5 5 5 6 6 7 8 8 7 6 6 6 7 7 6
25 26 29 29 26 25 25 25 25 24 23 22 21 22 22 21 19 18 19 19 19 19 19 17 16 15 14 15 15 16 15 13 13 13 14 15 14 13 12 11 11 11 11 10 9 7 5 4 5 6 6 6 7 8 9 9 9 9 8 8 8 8
25 26 29 29 27 27 25 25 26 24 24 24 23 23 21 19 19 19 20 20 20 19 19 18 17 16 15 15 16 16 15 14 14 14 15 15 14 13 12 12 10 9 11 11 10 9 8 7 6 7 7 7 8 9 10 11 11 11 11 10 9 10
21 24 27 28 28 29 27 26 28 25 24 25 25 25 24 22 22 21 20 21 23 21 19 19 18 18 17 16 17 17 16 15 15 15 16 16 15 14 13 12 10 9 10 11 10 10 10 11 10 8 9 9 9 9 10 11 12 13 12 12 11 12
16 20 24 26 27 30 30 29 30 28 24 26 27 25 26 27 25 23 22 21 23 23 22 22 20 20 20 19 18 19 19 18 17 16 16 16 16 16 13 11 11 10 11 11 12 12 11 13 13 12 11 10 11 11 11 12 12 13 13 13 13 13
17 19 21 22 24 29 33 30 29 30 28 27 29 27 25 28 28 24 24 23 22 22 23 24 25 24 23 23 21 22 22 20 19 16 15 15 16 15 13 13 13 12 12 13 14 14 12 13 16 15 12 12 13 13 13 14 14 14 13 13 14 15
18 18 17 19 23 27 32 33 30 31 32 29 31 31 25 25 29 26 24 24 22 21 21 22 27 27 26 25 23 22 22 21 19 16 15 16 17 16 15 15 14 13 13 14 14 15 13 13 16 16 14 14 14 13 14 15 14 13 13 13 15 16
17 17 16 17 21 25 29 34 32 31 33 31 30 33 28 22 27 28 25 25 24 22 21 20 24 28 28 27 24 22 21 20 18 16 15 16 16 17 16 16 15 14 14 14 14 15 16 16 17 17 16 15 14 13 14 13 12 11 10 12 14 15
16 17 17 17 19 23 27 32 35 34 35 35 33 36 34 23 23 28 27 26 25 23 22 21 22 25 26 26 24 22 21 20 18 16 16 16 16 16 17 17 17 15 15 15 14 14 16 19 21 20 18 15 13 12 12 12 12 10 9 11 11 12
17 17 18 18 19 23 26 29 36 39 39 40 38 38 38 29 22 26 27 26 26 24 22 21 21 22 23 24 25 23 22 20 19 18 17 16 15 15 17 17 17 17 16 14 13 13 14 18 22 23 22 20 17 14 12 12 12 11 11 11 10 10
17 17 17 18 20 22 25 28 34 40 41 42 42 38 38 34 26 25 26 24 24 24 23 22 21 21 22 24 24 25 24 23 21 20 19 17 17 16 16 16 17 17 16 15 15 16 15 15 18 22 23 23 22 20 18 17 16 16 16 15 13 12
17 17 17 18 20 22 24 28 32 38 40 40 41 38 36 34 28 26 26 23 22 24 24 22 21 20 21 23 25 26 27 26 24 23 21 20 19 18 17 17 17 16 15 15 16 17 16 15 16 18 19 20 20 20 21 21 20 19 19 21 22 19
18 17 18 19 20 21 22 25 29 34 36 36 38 36 33 32 29 28 29 26 24 24 24 23 21 20 19 21 25 27 28 28 27 25 23 22 20 19 19 18 18 17 15 15 16 16 16 15 15 16 16 17 17 17 19 20 20 20 20 22 25 25
18 16 18 20 21 21 23 24 27 30 31 31 33 32 31 31 29 29 31 30 27 25 26 25 23 23 22 23 25 26 27 28 29 27 26 24 22 21 20 20 19 18 18 17 17 17 18 17 15 16 17 17 17 16 16 17 18 19 19 19 21 23
14 15 16 19 18 19 24 26 26 27 28 30 30 31 31 31 30 29 30 30 28 27 28 28 27 26 26 26 26 26 26 26 27 28 28 26 25 23 21 20 20 19 20 20 20 20 19 18 17 18 17 16 17 17 17 17 18 18 18 18 20 21
10 13 14 16 15 17 24 27 27 28 29 30 30 31 31 30 30 29 28 29 28 28 29 30 30 27 24 24 25 25 25 24 24 25 26 26 25 25 23 22 20 19 19 19 20 22 22 20 19 18 17 15 15 15 16 18 18 18 18 19 22 23
9 11 13 15 16 16 21 25 27 29 29 29 29 28 29 30 30 29 28 28 28 29 29 30 29 25 23 23 25 25 23 21 22 22 22 22 22 22 23 22 21 20 18 16 16 19 21 22 21 20 19 17 16 16 16 16 17 18 19 20 22 24
7 10 11 13 15 18 19 21 24 26 27 29 28 27 27 28 28 28 28 28 28 29 29 29 27 24 23 24 26 26 22 20 22 22 21 20 20 20 20 21 20 20 20 18 16 17 19 20 20 19 19 18 16 16 15 13 14 17 18 19 20 21
5 8 11 12 13 17 18 18 19 20 23 26 27 26 24 23 24 24 25 26 27 27 26 26 24 22 22 23 25 26 23 21 22 23 22 22 21 20 19 19 19 19 20 20 18 18 19 19 19 19 19 17 15 14 12 11 13 14 16 18 19 20
3 4 9 13 12 13 15 16 16 18 20 22 23 22 21 22 23 23 24 23 23 24 24 22 21 22 22 22 23 24 24 23 23 23 23 22 22 21 19 19 19 19 20 21 20 19 18 19 20 20 20 18 16 14 13 12 13 13 15 18 20 20
2 0 4 9 10 11 12 12 14 17 17 19 21 22 21 21 22 22 22 20 19 21 21 20 19 21 22 22 23 23 24 25 25 25 25 24 23 23 22 21 20 19 20 21 21 21 20 20 21 21 20 19 17 16 14 14 14 14 14 16 18 20
Wind_Direction
170 167 172 177 179 179 180 177 173 180 185 181 177 172 168 168 173 174 171 172 176 177 175 169 169 172 163 160 147 129 116 104 100 95 93 98 102 105 110 118 126 135 142 140 137 132 126 133 157 150 128 87 46 34 33 31 27 32 54 101 108 108
171 169 173 179 183 182 185 179 173 179 185 184 181 178 174 173 177 179 177 174 177 181 181 178 177 176 169 167 156 139 126 115 109 102 98 101 103 104 108 114 120 128 135 134 131 129 125 137 165 136 102 76 49 34 30 26 24 33 58 92 106 108
174 173 177 182 184 184 188 182 174 179 185 185 185 184 178 178 181 182 183 177 176 181 183 184 183 182 178 175 164 148 137 128 120 110 105 105 104 105 106 109 113 119 125 127 128 127 128 142 160 95 75 58 37 26 24 21 20 31 52 77 104 107
184 181 181 183 185 186 189 186 177 179 184 186 187 186 182 183 184 185 184 177 177 180 181 184 184 185 184 181 173 158 150 141 131 120 111 109 107 107 107 108 111 116 122 125 128 129 133 146 143 61 59 46 26 20 21 21 22 31 47 61 91 98
190 186 185 185 188 189 190 190 183 181 186 190 188 187 185 184 184 185 185 178 178 180 182 185 184 184 184 187 182 168 157 147 138 125 115 111 109 109 108 109 111 114 118 118 121 125 127 128 99 55 45 28 18 19 25 30 32 34 44 52 72 89
194 191 189 188 190 192 192 193 190 185 187 191 191 188 186 185 184 186 186 182 181 181 185 188 185 183 184 189 187 174 161 151 142 128 119 114 111 111 108 107 109 112 116 113 109 112 114 91 36 35 30 22 21 28 35 40 42 41 47 54 64 76
198 198 192 188 190 191 193 195 193 190 190 191 192 190 187 186 186 187 187 184 184 184 188 190 184 185 187 189 189 178 164 154 145 131 123 120 116 112 108 108 109 112 116 112 108 108 112 78 24 31 38 37 36 45 50 46 47 48 51 57 65 73
200 199 191 187 188 189 193 197 196 193 192 190 189 190 187 187 187 188 188 185 186 184 188 190 184 186 187 187 188 180 169 158 147 134 130 128 122 116 111 114 116 115 116 116 113 108 109 82 41 51 54 54 51 54 52 45 46 48 53 56 60 68
202 199 193 189 188 188 191 195 195 195 193 189 188 188 186 187 189 189 189 187 186 184 186 189 185 187 186 186 186 181 174 163 152 140 137 136 128 122 116 120 127 123 120 123 117 100 107 133 45 58 58 61 64 61 51 43 46 48 51 55 56 61
202 201 198 193 190 189 190 193 193 194 194 191 188 185 186 189 189 188 188 187 185 182 184 186 185 188 187 186 184 181 177 170 165 153 144 143 135 130 127 130 137 132 127 126 112 84 88 286 33 52 54 63 71 68 58 49 44 47 52 53 54 56
203 203 200 196 194 193 191 192 191 192 194 193 188 185 187 188 188 187 186 189 187 182 184 185 186 188 187 186 184 180 177 176 175 163 152 149 142 139 140 144 146 144 136 109 83 70 354 314 14 39 45 55 66 68 63 56 46 44 50 50 49 50
206 206 202 196 198 199 198 195 192 191 194 194 189 187 188 187 187 187 186 191 191 186 184 185 187 189 188 186 182 179 178 179 177 166 159 153 149 149 150 154 158 158 144 104 13 176 343 337 3 16 30 41 51 59 60 59 51 43 44 45 46 47
206 207 202 197 201 205 207 207 200 195 194 193 190 189 189 188 188 187 185 191 193 188 187 188 188 190 190 186 182 181 180 180 180 174 167 160 159 158 149 152 166 168 155 156 218 205 234 321 351 355 8 24 36 45 48 56 55 47 43 39 39 40
206 207 204 201 205 207 207 212 212 207 200 194 192 192 191 190 191 188 185 190 193 190 189 190 188 189 191 188 185 184 183 182 180 184 180 168 174 169 151 156 173 177 180 192 205 208 220 291 326 333 349 358 16 31 29 37 47 45 42 35 32 31
207 209 208 206 209 209 209 211 215 216 209 202 197 195 195 195 193 189 187 190 193 191 187 188 189 191 193 192 190 189 191 187 179 187 190 179 185 179 161 173 184 187 200 204 205 216 228 268 308 315 333 336 343 11 16 13 23 26 21 20 22 25
210 209 208 209 212 213 212 212 214 212 207 208 205 200 200 200 195 189 191 195 195 193 189 187 188 191 194 194 193 193 194 189 183 189 191 185 187 185 183 190 194 199 204 200 203 212 220 250 290 306 315 318 316 334 351 350 0 3 353 347 344 354
215 213 211 210 213 215 213 211 214 213 202 198 204 206 202 201 198 193 198 199 195 194 194 191 189 189 193 195 194 192 192 188 189 193 193 192 189 190 196 196 198 204 201 193 204 211 212 245 281 296 307 315 311 316 327 329 335 339 337 331 325 324
223 223 222 221 221 219 217 214 215 217 209 194 196 207 203 200 201 199 205 203 196 195 197 197 195 195 197 199 199 198 198 195 195 198 198 200 197 195 196 190 192 200 199 197 210 225 226 243 278 287 298 314 315 314 318 318 314 314 319 320 321 321
234 231 230 232 230 223 218 215 216 218 214 201 197 205 205 203 206 208 210 207 203 201 201 202 200 203 204 205 207 204 205 206 206 206 205 206 204 197 191 185 185 196 204 207 216 234 241 244 262 278 286 301 311 311 313 314 308 305 308 309 312 313
233 228 228 233 233 226 219 214 217 219 215 207 201 204 208 207 207 211 213 208 206 205 208 210 207 208 209 210 211 207 207 212 213 212 210 209 202 191 187 188 190 199 208 212 220 229 238 243 246 256 267 281 296 300 304 306 304 303 303 303 304 305
226 221 225 230 233 230 224 217 218 219 217 213 208 203 205 208 208 209 211 207 207 208 209 212 211 212 213 213 212 207 206 211 214 216 214 207 198 190 188 195 201 208 215 215 219 226 237 239 236 238 248 265 279 281 286 291 294 298 299 299 298 298
228 224 226 231 233 231 228 224 221 219 217 217 214 203 200 207 208 207 207 207 208 210 212 213 212 213 215 217 214 208 208 211 212 216 215 207 203 200 197 204 208 214 227 224 218 224 236 233 228 233 250 270 275 269 270 274 279 286 292 295 293 292
227 225 225 230 233 232 230 228 225 220 215 214 214 208 202 205 208 208 209 210 209 211 215 217 216 216 219 221 218 213 211 212 214 219 220 212 210 209 204 209 216 219 232 234 223 221 226 227 225 231 248 264 266 266 268 270 276 284 288 289 287 286
225 223 221 225 229 232 231 228 225 220 215 212 212 212 209 204 206 209 211 213 212 213 217 217 216 218 220 222 220 216 213 212 216 221 223 219 217 218 216 218 226 230 236 238 232 224 221 223 226 229 239 251 255 262 268 273 287 295 291 285 283 285
225 223 222 222 222 224 227 225 221 216 213 211 209 210 211 205 202 206 211 214 215 217 221 218 214 214 216 218 218 217 218 218 220 222 223 223 222 224 227 230 235 242 245 243 240 235 226 226 230 231 235 242 248 258 270 285 297 297 291 287 288 288
221 222 223 220 215 216 220 221 218 215 212 211 208 207 210 208 200 202 208 213 218 220 222 219 216 214 212 215 217 220 224 226 228 229 229 229 226 226 230 235 241 247 250 248 245 244 234 226 230 234 235 239 243 253 273 296 304 301 298 294 290 292
217 216 217 216 212 210 214 217 218 218 217 213 209 206 210 209 200 201 206 210 218 221 221 221 222 221 216 214 217 222 226 230 234 237 239 239 236 236 239 242 245 248 249 249 247 247 241 230 231 235 236 239 244 250 261 277 289 295 298 295 291 294
214 213 213 216 214 210 211 214 218 221 221 219 213 208 212 213 207 206 206 207 217 221 221 223 225 226 224 219 216 219 225 231 236 240 243 245 244 247 252 253 251 248 247 248 249 250 249 246 245 244 241 242 248 254 258 265 276 286 292 292 290 291
214 215 215 219 222 217 213 215 220 221 221 219 213 209 212 215 213 213 211 211 219 223 223 222 223 227 233 229 221 218 222 229 236 241 245 247 250 254 258 260 258 254 252 254 256 257 258 259 263 264 260 255 258 265 267 267 272 282 287 289 289 292
221 218 218 222 225 220 213 214 219 219 217 214 210 208 211 212 213 215 217 219 223 227 225 221 222 228 233 234 229 221 219 225 233 239 245 249 253 257 258 260 260 259 259 261 264 264 265 269 276 281 280 274 273 279 282 279 278 285 292 293 293 295
227 218 219 225 227 220 210 210 215 213 211 211 207 206 209 210 213 215 217 220 223 227 226 224 226 229 229 231 234 229 221 222 230 237 243 248 252 255 255 257 259 260 261 263 265 264 264 269 274 278 281 283 285 287 287 285 284 289 296 300 298 297
226 215 217 224 226 216 208 209 214 212 211 213 210 206 207 210 213 214 215 218 220 224 226 227 230 231 228 229 233 232 225 223 227 233 239 245 249 252 253 254 256 258 260 263 264 261 259 259 263 266 268 271 276 279 278 278 277 279 284 289 292 294
223 217 222 225 220 211 208 211 215 214 213 215 215 212 213 215 215 215 216 219 222 224 226 229 232 234 234 233 233 233 230 228 228 229 235 243 249 253 254 253 255 257 256 255 258 260 257 257 260 265 270 273 276 280 285 284 278 275 277 281 286 291
231 226 227 226 220 214 212 214 218 217 215 215 216 215 217 219 218 217 217 220 225 227 228 230 232 236 238 236 234 233 232 233 237 237 238 245 252 254 253 251 253 256 255 254 258 261 259 259 262 266 271 276 279 283 288 286 278 275 276 276 280 286
253 241 227 222 223 219 217 219 223 223 218 216 215 214 215 217 215 214 215 220 226 228 231 232 232 234 235 232 231 233 233 234 241 244 244 247 251 252 251 250 253 255 255 255 258 261 261 263 268 272 275 276 274 272 273 271 273 274 272 272 274 278
289 252 220 222 232 233 230 229 232 230 220 211 210 209 208 208 210 212 213 216 222 225 228 230 227 227 228 229 231 234 235 234 238 243 244 247 250 252 252 253 255 258 258 256 256 261 265 266 269 273 276 275 271 270 272 275 277 276 273 274 276 279
310 336 201 224 243 248 243 235 236 238 221 201 202 205 203 202 208 214 214 216 222 224 225 226 224 223 225 229 230 232 235 236 237 241 244 246 247 250 252 253 255 257 258 255 255 260 266 268 271 273 274 274 274 274 275 278 279 278 278 279 280 281